When you browse on this site, cookies collect data to enhance your experience and personalize the content and advertising you see.
Visit our Privacy Policy to learn more. By continuing to use the site, you agree to this use of cookies and data.
  • In Österreich
  • Länderverzeichnis
  • Für 7 Tage
  • Wassertemperatur
  • Wetterkarte
  • News
  • Widgets
  • user-avatar
    Anmelden

    Stündliche Wetter Atitalaquia

    Heute, 22 November, Freitag

    Zeit Temperatur Niederschläge Wind Luftdruck Luftfeuchtigkeit
    00:00 +15°C° 0 mm 0 m/S 593 mmHg 75%
    01:00 +15°C° 0 mm 1 m/S 593 mmHg 75%
    02:00 +15°C° 0 mm 1 m/S 592 mmHg 75%
    03:00 +14°C° 0 mm 1 m/S 592 mmHg 75%
    04:00 +14°C° 0 mm 1 m/S 592 mmHg 76%
    05:00 +12°C° 0 mm 0 m/S 592 mmHg 77%
    06:00 +14°C° 0 mm 0 m/S 593 mmHg 70%
    07:00 +16°C° 0 mm 0 m/S 594 mmHg 63%
    08:00 +18°C° 0 mm 0 m/S 595 mmHg 56%
    09:00 +21°C° 0 mm 1 m/S 596 mmHg 49%
    10:00 +23°C° 0 mm 2 m/S 596 mmHg 42%
    11:00 +25°C° 0 mm 2 m/S 596 mmHg 34%
    12:00 +25°C° 0 mm 2 m/S 596 mmHg 32%
    13:00 +26°C° 0 mm 2 m/S 595 mmHg 29%
    14:00 +26°C° 0 mm 3 m/S 595 mmHg 26%
    15:00 +24°C° 0 mm 3 m/S 594 mmHg 30%
    16:00 +22°C° 0 mm 3 m/S 594 mmHg 35%
    17:00 +20°C° 0 mm 2 m/S 594 mmHg 39%
    18:00 +19°C° 0 mm 2 m/S 594 mmHg 46%
    19:00 +18°C° 0 mm 2 m/S 594 mmHg 54%
    20:00 +18°C° 0 mm 1 m/S 594 mmHg 61%
    21:00 +18°C° 0 mm 1 m/S 594 mmHg 63%
    22:00 +16°C° 0 mm 1 m/S 593 mmHg 65%
    23:00 +14°C° 0 mm 0 m/S 593 mmHg 67%

    Morgen, 23 November, Samstag

    Zeit Temperatur Niederschläge Wind Luftdruck Luftfeuchtigkeit
    00:00 +14°C° 0 mm 0 m/S 593 mmHg 67%
    01:00 +13°C° 0 mm 0 m/S 592 mmHg 68%
    02:00 +13°C° 0 mm 0 m/S 592 mmHg 69%
    03:00 +12°C° 0 mm 0 m/S 592 mmHg 70%
    04:00 +12°C° 0 mm 0 m/S 592 mmHg 71%
    05:00 +11°C° 0 mm 0 m/S 592 mmHg 72%
    06:00 +13°C° 0 mm 0 m/S 593 mmHg 65%
    07:00 +15°C° 0 mm 0 m/S 594 mmHg 58%
    08:00 +17°C° 0 mm 0 m/S 595 mmHg 50%
    09:00 +18°C° 0 mm 0 m/S 596 mmHg 43%
    10:00 +22°C° 0 mm 1 m/S 596 mmHg 35%
    11:00 +24°C° 0 mm 1 m/S 596 mmHg 27%
    12:00 +25°C° 0 mm 2 m/S 596 mmHg 26%
    13:00 +25°C° 0 mm 2 m/S 596 mmHg 26%
    14:00 +26°C° 0 mm 3 m/S 596 mmHg 26%
    15:00 +24°C° 0 mm 3 m/S 595 mmHg 34%
    16:00 +21°C° 0 mm 3 m/S 594 mmHg 43%
    17:00 +19°C° 0 mm 3 m/S 594 mmHg 51%
    18:00 +18°C° 0 mm 2 m/S 594 mmHg 60%
    19:00 +17°C° 0 mm 2 m/S 594 mmHg 70%
    20:00 +16°C° 0 mm 1 m/S 594 mmHg 79%
    21:00 +16°C° 0 mm 1 m/S 594 mmHg 81%
    22:00 +15°C° 0 mm 1 m/S 594 mmHg 84%
    23:00 +15°C° 0 mm 1 m/S 594 mmHg 87%

    übermorgen, 24 November, Sonntag

    Zeit Temperatur Niederschläge Wind Luftdruck Luftfeuchtigkeit
    00:00 +15°C° 0 mm 1 m/S 594 mmHg 86%
    01:00 +14°C° 0 mm 1 m/S 593 mmHg 85%
    02:00 +14°C° 0 mm 1 m/S 593 mmHg 84%
    03:00 +13°C° 0 mm 1 m/S 593 mmHg 85%
    04:00 +13°C° 0 mm 1 m/S 593 mmHg 86%
    05:00 +11°C° 0 mm 0 m/S 592 mmHg 86%
    06:00 +12°C° 0 mm 0 m/S 593 mmHg 81%
    07:00 +13°C° 0 mm 0 m/S 594 mmHg 75%
    08:00 +14°C° 0 mm 0 m/S 595 mmHg 70%
    09:00 +16°C° 0 mm 0 m/S 595 mmHg 60%
    10:00 +18°C° 0 mm 0 m/S 595 mmHg 51%
    11:00 +20°C° 0 mm 0 m/S 596 mmHg 41%
    12:00 +23°C° 0 mm 1 m/S 595 mmHg 37%
    13:00 +24°C° 0 mm 1 m/S 595 mmHg 32%
    14:00 +24°C° 0 mm 2 m/S 595 mmHg 28%
    15:00 +23°C° 0 mm 2 m/S 594 mmHg 33%
    16:00 +21°C° 0 mm 2 m/S 594 mmHg 38%
    17:00 +19°C° 0 mm 2 m/S 593 mmHg 43%
    18:00 +18°C° 0 mm 2 m/S 593 mmHg 53%
    19:00 +18°C° 0 mm 1 m/S 593 mmHg 63%
    20:00 +16°C° 0 mm 1 m/S 593 mmHg 72%
    21:00 +16°C° 0 mm 1 m/S 593 mmHg 74%
    22:00 +15°C° 0 mm 1 m/S 593 mmHg 75%
    23:00 +15°C° 0 mm 1 m/S 592 mmHg 76%

    25 November, Montag

    Zeit Temperatur Niederschläge Wind Luftdruck Luftfeuchtigkeit
    00:00 +15°C° 0 mm 1 m/S 592 mmHg 74%
    01:00 +15°C° 0 mm 1 m/S 591 mmHg 73%
    02:00 +14°C° 0 mm 1 m/S 591 mmHg 71%
    03:00 +14°C° 0 mm 1 m/S 591 mmHg 72%
    04:00 +14°C° 0 mm 1 m/S 591 mmHg 73%
    05:00 +13°C° 0 mm 1 m/S 591 mmHg 74%
    06:00 +15°C° 0 mm 1 m/S 592 mmHg 68%
    07:00 +18°C° 0 mm 1 m/S 593 mmHg 62%
    08:00 +19°C° 0 mm 1 m/S 594 mmHg 56%
    09:00 +21°C° 0 mm 1 m/S 594 mmHg 52%
    10:00 +22°C° 0 mm 1 m/S 594 mmHg 47%
    11:00 +24°C° 0 mm 2 m/S 594 mmHg 43%
    12:00 +25°C° 0 mm 2 m/S 594 mmHg 39%
    13:00 +25°C° 0 mm 2 m/S 594 mmHg 36%
    14:00 +26°C° 0 mm 3 m/S 593 mmHg 32%
    15:00 +24°C° 0 mm 3 m/S 593 mmHg 36%
    16:00 +22°C° 0 mm 3 m/S 592 mmHg 40%
    17:00 +21°C° 0 mm 3 m/S 592 mmHg 44%
    18:00 +20°C° 0 mm 2 m/S 592 mmHg 49%
    19:00 +20°C° 0 mm 1 m/S 592 mmHg 53%
    20:00 +19°C° 0 mm 1 m/S 593 mmHg 58%
    21:00 +19°C° 0 mm 1 m/S 592 mmHg 61%
    22:00 +16°C° 0 mm 0 m/S 592 mmHg 65%
    23:00 +15°C° 0 mm 0 m/S 592 mmHg 68%

    26 November, Dienstag

    Zeit Temperatur Niederschläge Wind Luftdruck Luftfeuchtigkeit
    00:00 +15°C° 0 mm 0 m/S 591 mmHg 69%
    01:00 +14°C° 0 mm 0 m/S 591 mmHg 70%
    02:00 +14°C° 0 mm 0 m/S 590 mmHg 70%
    03:00 +14°C° 0 mm 0 m/S 590 mmHg 72%
    04:00 +14°C° 0 mm 1 m/S 590 mmHg 73%
    05:00 +14°C° 0 mm 1 m/S 590 mmHg 75%
    06:00 +16°C° 0 mm 1 m/S 591 mmHg 69%
    07:00 +18°C° 0 mm 1 m/S 592 mmHg 63%
    08:00 +20°C° 0 mm 1 m/S 593 mmHg 57%
    09:00 +21°C° 0 mm 1 m/S 594 mmHg 51%
    10:00 +23°C° 0 mm 1 m/S 594 mmHg 46%
    11:00 +25°C° 0 mm 1 m/S 594 mmHg 40%
    12:00 +25°C° 0 mm 1 m/S 594 mmHg 37%
    13:00 +26°C° 0 mm 1 m/S 594 mmHg 35%
    14:00 +27°C° 0 mm 1 m/S 593 mmHg 32%
    15:00 +25°C° 0 mm 1 m/S 593 mmHg 36%
    16:00 +24°C° 0 mm 2 m/S 593 mmHg 41%
    17:00 +23°C° 0 mm 2 m/S 593 mmHg 45%
    18:00 +21°C° 0 mm 2 m/S 593 mmHg 52%
    19:00 +20°C° 0 mm 2 m/S 593 mmHg 58%
    20:00 +20°C° 0 mm 1 m/S 594 mmHg 65%
    21:00 +20°C° 0 mm 1 m/S 593 mmHg 68%
    22:00 +19°C° 0 mm 1 m/S 593 mmHg 71%
    23:00 +16°C° 0 mm 0 m/S 593 mmHg 74%

    27 November, Mittwoch

    Zeit Temperatur Niederschläge Wind Luftdruck Luftfeuchtigkeit
    00:00 +15°C° 0 mm 0 m/S 592 mmHg 76%
    01:00 +15°C° 0 mm 0 m/S 592 mmHg 77%
    02:00 +14°C° 0 mm 0 m/S 592 mmHg 78%
    03:00 +14°C° 0 mm 0 m/S 592 mmHg 79%
    04:00 +13°C° 0 mm 0 m/S 592 mmHg 80%
    05:00 +13°C° 0 mm 0 m/S 592 mmHg 81%
    06:00 +15°C° 0 mm 0 m/S 593 mmHg 74%
    07:00 +16°C° 0 mm 0 m/S 594 mmHg 67%
    08:00 +18°C° 0 mm 0 m/S 595 mmHg 59%
    09:00 +19°C° 0 mm 0 m/S 596 mmHg 52%
    10:00 +23°C° 0 mm 1 m/S 596 mmHg 44%
    11:00 +25°C° 0 mm 1 m/S 597 mmHg 37%
    12:00 +25°C° 0 mm 1 m/S 596 mmHg 33%
    13:00 +26°C° 0 mm 1 m/S 596 mmHg 29%
    14:00 +27°C° 0 mm 1 m/S 596 mmHg 25%
    15:00 +25°C° 0 mm 2 m/S 595 mmHg 32%
    16:00 +23°C° 0 mm 2 m/S 595 mmHg 40%
    17:00 +21°C° 0 mm 2 m/S 594 mmHg 47%
    18:00 +20°C° 0 mm 2 m/S 595 mmHg 60%
    19:00 +19°C° 0 mm 1 m/S 595 mmHg 72%
    20:00 +18°C° 0 mm 1 m/S 595 mmHg 84%
    21:00 +18°C° 0 mm 1 m/S 595 mmHg 87%
    22:00 +16°C° 0 mm 1 m/S 595 mmHg 89%
    23:00 +16°C° 0 mm 1 m/S 594 mmHg 91%
    Mehr zeigen